Location: Balagbag Mahabang Kahoy
(14.1562°N, 120.9200°E)
Time: 04:57:26
(UTC+00:00)

USA 234 - Pass Details

Date: 16 January 2026
Orbit: 1102 x 1106 km, 123.0° (Epoch: 4 January)

Event Time Altitude Azimuth Distance (km) Brightness Sun altitude
Rises 20:41:54 0° 43° (NE) 3,915 6.5 -24.4°
Reaches altitude 10° 20:44:26 10° 47° (NE) 2,957 5.9 -23.8°
Maximum altitude 20:50:52 61° 126° (SE) 1,238 3.7 -22.3°
Drops below altitude 10° 20:57:16 10° 205° (SSW) 2,952 5.4 -20.8°
Sets 20:59:47 0° 209° (SSW) 3,909 6.0 -20.2°
